Location: Curicchi
(45.0167°N, 12.0500°E)
Time: 09:56:29
(UTC+00:00)

NOSS 2-1 (E) - Pass Details

Date: 07 June 2020
Orbit: 446 x 1757 km, 63.3° (Epoch: 25 June)

Event Time Altitude Azimuth Distance (km) Brightness Sun altitude
Exits shadow 02:05:20 12° 260° (W) 1,461 5.0 -11.4°
Maximum altitude 02:08:00 28° 319° (NW) 900 4.5 -11.1°
Drops below altitude 10° 02:11:17 10° 21° (NNE) 1,741 7.1 -10.7°
Sets 02:13:53 0° 33° (NNE) 2,771 8.9 -10.4°
